Regional Weather Roundup
Issued by NWS

Home | Current Version | Previous Version | Text Only | Print | Product List | Glossary Off
Versions: 1 2 3 4 5 6 7 8 9 10 11 12 13 14 15 16 17 18 19 20 21 22 23 24 25 26 27 28 29 30 31 32 33 34 35 36 37 38 39 40 41 42 43 44 45 46 47 48 49 50

350
ASUS43 KBIS 220631
RWRND
NORTH DAKOTA REGIONAL WEATHER ROUNDUP
NATIONAL WEATHER SERVICE EASTERN NORTH DAKOTA/GRAND FORKS ND
100 AM CDT SUN APR 22 2018

  NOTE: "FAIR" INDICATES FEW OR NO CLOUDS BELOW 12,000 FEET WITH NO
  SIGNIFICANT WEATHER AND/OR OBSTRUCTIONS TO VISIBILITY.

NDZ001>003-009>011-017-220700-
...NORTHWEST NORTH DAKOTA...

CITY           SKY/WX    TMP DP  RH WIND       PRES   REMARKS
WILLISTON      FAIR      52  39  61 S7        30.03R
6HR MIN TEMP:  52; 6HR MAX TEMP:  68;

MINOT          FAIR      47  37  68 S23G32    30.05F
MINOT AFB      FAIR      46  37  72 S23G30    30.03F
6HR MIN TEMP:  46; 6HR MAX TEMP:  62;

$$

NDZ018>021-031>035-040>046-220700-
...SOUTHWEST NORTH DAKOTA...

CITY           SKY/WX    TMP DP  RH WIND       PRES   REMARKS
BISMARCK       FAIR      43  35  73 S12       30.19S
DICKINSON      FAIR      41  36  82 S22       30.04F
GARRISON         N/A     41  36  82 S12       30.10F
HETTINGER      FAIR      39  35  86 SE10      30.12F WCI  32
$$

NDZ004>008-012>016-024-026-027-054-220700-
...NORTHEAST NORTH DAKOTA...

CITY           SKY/WX    TMP DP  RH WIND       PRES   REMARKS
GRAND FORKS    FAIR      43  42  97 S14       30.22S
GRAND FORKS AF FAIR      43  40  88 S9        30.22R
DEVILS LAKE    FAIR      43  34  70 S13       30.19R
$$

NDZ022-023-025-028>030-036>039-047>053-220700-
...SOUTHEAST NORTH DAKOTA...

CITY           SKY/WX    TMP DP  RH WIND       PRES   REMARKS
JAMESTOWN      FAIR      40  34  79 S10       30.21F WCI  33
FARGO          FAIR      46  39  76 S13       30.27S
WAHPETON       FAIR      37  34  87 S6        30.30S WCI  33
$$




USA.gov is the U.S. government's official web portal to all federal, state and local government web resources and services.